Weather History for Steamboat Springs, CO

Change the Weather History Date:

Tuesday, February 7, 2012

  Actual Average Record
Temperature  
Mean Temperature 20 °F -  
Max Temperature 31 °F 29 °F 47 °F (1916)
Min Temperature 9 °F 2 °F -37 °F (1989)
Degree Days  
Heating Degree Days 45    
Moisture  
Dew Point 7 °F    
Average Humidity 65    
Maximum Humidity 90    
Minimum Humidity 30    
Precipitation  
Precipitation 0.00 in - - ()
Sea Level Pressure  
Sea Level Pressure 30.20 in    
Wind  
Wind Speed 0 mph (ESE)    
Max Wind Speed 5 mph    
Max Gust Speed -    
Visibility 10 miles    
Events      
Averages and records for this station are not official NWS values.
T = Trace of Precipitation, MM = Missing Value Source: NWS Daily Summary

Daily Weather History Graph

Daily Weather History Graph

Search for Another Location

Airport:

Trip Planner

Search our weather history database for the weather conditions in past years. The results will help you decide how hot, cold, wet, or windy it might be!

Date:

Astronomy

Feb. 07, 2012 Rise Set
Actual Time 7:11 AM MST 5:32 PM MST
Civil Twilight 6:42 AM MST 6:00 PM MST
Nautical Twilight 6:10 AM MST 6:33 PM MST
Astronomical Twilight 5:38 AM MST 7:05 PM MST
Moon 5:46 PM MST (2/7) 6:41 AM MST (2/7)
Length of Visible Light 11h 18m
Length of Day
10h 21m
Full, 100% of the Moon is Illuminated
Feb 7
Full
Feb 7
Full
Feb 14
Last Quarter
Feb 21
New
Feb 29
First Quarter

Hourly Weather History & Observations

Time (MST) Temp. Windchill Dew Point Humidity Pressure Visibility Wind Dir Wind Speed Gust Speed Precip Events Conditions
12:16 AM 19.0 °F - 10.4 °F 69% 30.17 in 10.0 mi Calm Calm - N/A   Overcast
12:36 AM 17.8 °F - 10.4 °F 73% 30.18 in 10.0 mi Calm Calm - N/A   Overcast
12:55 AM 18.1 °F - 10.4 °F 72% 30.18 in 10.0 mi Calm Calm - N/A   Mostly Cloudy
1:16 AM 16.7 °F - 8.4 °F 70% 30.18 in 10.0 mi Calm Calm - N/A   Scattered Clouds
1:36 AM 15.6 °F - 8.6 °F 74% 30.19 in 10.0 mi Calm Calm - N/A   Scattered Clouds
1:55 AM 15.4 °F - 8.6 °F 74% 30.19 in 10.0 mi Calm Calm - N/A   Mostly Cloudy
2:16 AM 16.0 °F - 8.6 °F 73% 30.20 in 10.0 mi Calm Calm - N/A   Overcast
2:55 AM 16.2 °F - 8.2 °F 71% 30.19 in 10.0 mi Calm Calm - N/A   Mostly Cloudy
3:16 AM 13.1 °F - 8.1 °F 80% 30.19 in 10.0 mi Calm Calm - N/A   Scattered Clouds
3:36 AM 11.8 °F - 6.4 °F 79% 30.20 in 10.0 mi Calm Calm - N/A   Scattered Clouds
3:56 AM 12.2 °F - 5.9 °F 76% 30.21 in 10.0 mi Calm Calm - N/A   Mostly Cloudy
4:15 AM 12.2 °F - 6.8 °F 79% 30.22 in 10.0 mi Calm Calm - N/A   Overcast
4:36 AM 12.6 °F - 7.7 °F 81% 30.22 in 10.0 mi Calm Calm - N/A   Overcast
4:56 AM 12.4 °F - 7.7 °F 82% 30.22 in 7.0 mi Calm Calm - N/A   Overcast
5:16 AM 11.8 °F - 7.7 °F 83% 30.23 in 7.0 mi Calm Calm - N/A   Overcast
5:36 AM 12.0 °F - 7.7 °F 83% 30.23 in 7.0 mi Calm Calm - N/A   Overcast
5:56 AM 11.3 °F - 7.7 °F 85% 30.24 in 7.0 mi Calm Calm - N/A   Scattered Clouds
6:16 AM 10.9 °F - 8.6 °F 90% 30.24 in 10.0 mi Calm Calm - N/A   Clear
6:35 AM 10.9 °F - 8.2 °F 89% 30.24 in 10.0 mi Calm Calm - N/A   Clear
6:56 AM 10.2 °F - 6.3 °F 84% 30.24 in 10.0 mi Calm Calm - N/A   Clear
7:16 AM 9.3 °F 2.8 °F 5.4 °F 84% 30.24 in 10.0 mi East 3.5 mph - N/A   Scattered Clouds
7:35 AM 9.1 °F - 5.7 °F 86% 30.24 in 10.0 mi Calm Calm - N/A   Scattered Clouds
8:16 AM 11.3 °F - 6.8 °F 82% 30.24 in 10.0 mi Calm Calm - N/A   Clear
8:28 AM 11.1 °F - 5.7 °F 79% 30.25 in 10.0 mi Calm Calm - N/A   Clear
11:38 AM 26.6 °F - 9.9 °F 49% 30.23 in 10.0 mi Calm Calm - N/A   Clear
11:58 AM 27.1 °F - 9.3 °F 47% 30.23 in 10.0 mi Calm Calm - N/A   Clear
12:19 PM 29.8 °F - 9.5 °F 43% 30.21 in 10.0 mi Calm Calm - N/A   Clear
12:38 PM 30.9 °F - 8.8 °F 40% 30.20 in 10.0 mi Calm Calm - N/A   Clear
12:44 PM 31.1 °F - 8.1 °F 38% 30.20 in 10.0 mi Calm Calm - N/A   Clear
4:58 PM 31.8 °F - 3.2 °F 30% 30.16 in 10.0 mi Calm Calm - N/A   Clear
5:18 PM 30.4 °F - 3.6 °F 32% 30.16 in 10.0 mi Calm Calm - N/A   Clear
5:38 PM 28.4 °F - 4.3 °F 36% 30.16 in 10.0 mi Calm Calm - N/A   Clear
5:58 PM 27.5 °F - 4.8 °F 38% 30.17 in 10.0 mi Calm Calm - N/A   Clear
6:18 PM 26.4 °F - 5.7 °F 41% 30.17 in 10.0 mi Calm Calm - N/A   Clear
6:38 PM 24.8 °F - 5.9 °F 45% 30.16 in 10.0 mi Calm Calm - N/A   Clear
6:58 PM 25.5 °F 21.3 °F 5.9 °F 43% 30.17 in 10.0 mi SE 3.5 mph - N/A   Clear
7:18 PM 21.0 °F 14.6 °F 7.3 °F 56% 30.17 in 10.0 mi SE 4.6 mph - N/A   Clear
7:38 PM 20.3 °F - 7.9 °F 59% 30.17 in 10.0 mi Calm Calm - N/A   Clear
7:58 PM 21.2 °F 16.4 °F 7.3 °F 55% 30.17 in 10.0 mi ESE 3.5 mph - N/A   Clear
8:18 PM 20.3 °F - 7.0 °F 56% 30.18 in 10.0 mi Calm Calm - N/A   Clear
8:38 PM 19.6 °F - 7.0 °F 58% 30.18 in 10.0 mi Calm Calm - N/A   Clear
8:58 PM 18.0 °F 11.1 °F 6.6 °F 61% 30.19 in 10.0 mi SE 4.6 mph - N/A   Clear
9:18 PM 18.3 °F - 6.8 °F 61% 30.20 in 10.0 mi Calm Calm - N/A   Clear
9:38 PM 19.4 °F - 7.2 °F 59% 30.20 in 10.0 mi Calm Calm - N/A   Clear
9:58 PM 16.7 °F - 6.8 °F 65% 30.20 in 10.0 mi Calm Calm - N/A   Clear
10:18 PM 15.8 °F - 6.8 °F 68% 30.21 in 10.0 mi Calm Calm - N/A   Clear
10:38 PM 15.1 °F - 6.8 °F 70% 30.21 in 10.0 mi Calm Calm - N/A   Clear
10:58 PM 13.5 °F - 6.4 °F 74% 30.21 in 10.0 mi Calm Calm - N/A   Clear
11:18 PM 13.3 °F - 6.3 °F 74% 30.22 in 10.0 mi Calm Calm - N/A   Clear
11:38 PM 12.9 °F - 5.9 °F 74% 30.21 in 10.0 mi Calm Calm - N/A   Clear
11:58 PM 13.8 °F - 5.9 °F 71% 30.21 in 10.0 mi Calm Calm - N/A   Clear